This is the latest recevied weather packets stored in our database for station/object KB0BS-13. If no packets are shown the sender has not sent any weather packets the latest 1 day(s).
| Time | Temp. | Humidity | Pressure | Rain* | Wind** | Luminosity | Snow |
|---|---|---|---|---|---|---|---|
| 1778093198 | 5° C | 58% | 1013.1 hPa | 0 mm | - | 218 W/m² | - |
| 1778092592 | 5° C | 63% | 1013 hPa | 0 mm | - | 236 W/m² | - |
| 1778091682 | 5° C | 60% | 1013 hPa | 0 mm | - | 293 W/m² | - |
| 1778091077 | 5° C | 61% | 1013 hPa | 0 mm | - | 195 W/m² | - |
| 1778088652 | 4.44° C | 60% | 1013.1 hPa | 0 mm | - | 230 W/m² | - |
| 1778087743 | 4.44° C | 60% | 1013.4 hPa | 0 mm | - | 239 W/m² | - |
| 1778085618 | 4.44° C | 61% | 1013.3 hPa | 0 mm | - | 198 W/m² | - |
| 1778085314 | 4.44° C | 61% | 1013.5 hPa | 0 mm | - | 193 W/m² | - |
| 1778085010 | 4.44° C | 62% | 1013.4 hPa | 0 mm | - | 194 W/m² | - |
| 1778084101 | 4.44° C | 62% | 1013.3 hPa | 0 mm | - | 279 W/m² | - |
| 1778083798 | 4.44° C | 64% | 1013.3 hPa | 0 mm | - | 261 W/m² | - |
| 1778081474 | 4.44° C | 64% | 1013.1 hPa | 0 mm | - | 257 W/m² | - |
| 1778081171 | 3.89° C | 63% | 1012.9 hPa | 0 mm | - | 253 W/m² | - |
| 1778080567 | 3.89° C | 66% | 1013 hPa | 0 mm | - | 214 W/m² | - |
| 1778079960 | 3.89° C | 66% | 1012.9 hPa | 0 mm | - | 230 W/m² | - |
| 1778079657 | 3.89° C | 64% | 1012.9 hPa | 0 mm | - | 226 W/m² | - |
| 1778078445 | 3.89° C | 70% | 1012.8 hPa | 0 mm | - | 221 W/m² | - |
| 1778077538 | 3.33° C | 70% | 1012.8 hPa | 0 mm | - | 214 W/m² | - |
| 1778076934 | 3.33° C | 73% | 1012.5 hPa | 0 mm | - | 189 W/m² | - |
| 1778076632 | 3.33° C | 72% | 1012.8 hPa | 0 mm | - | 195 W/m² | - |
| 1778075723 | 2.78° C | 75% | 1012.9 hPa | 0 mm | - | 179 W/m² | - |
| 1778074812 | 2.78° C | 76% | 1012.9 hPa | 0 mm | - | 145 W/m² | - |
| 1778074206 | 2.78° C | 77% | 1012.8 hPa | 0 mm | - | 127 W/m² | - |
| 1778072994 | 2.22° C | 76% | 1012.5 hPa | 0 mm | - | 115 W/m² | - |
| 1778069666 | 1.11° C | 80% | 1012.1 hPa | 0 mm | - | 62 W/m² | - |
* Rain latest hour (hover to see other rain measurements)
** Current wind speed in m/s (hover to see current wind gust speed)